Weather History for Key West NAF, FL

Change the Weather History Date:

Sunday, May 12, 2013

  Actual Average Record
Temperature  
Mean Temperature 81 °F -  
Max Temperature 84 °F 84 °F 91 °F (2003)
Min Temperature 78 °F 75 °F 69 °F (1958)
Cooling Degree Days 16    
Growing Degree Days 31 (Base 50)    
Moisture  
Dew Point 72 °F    
Average Humidity 74    
Maximum Humidity 88    
Minimum Humidity 60    
Precipitation  
Precipitation 0.00 in - - ()
Sea Level Pressure  
Sea Level Pressure 30.02 in    
Wind  
Wind Speed 9 mph (ESE)    
Max Wind Speed 16 mph    
Max Gust Speed -    
Visibility 10 miles    
Events      
Averages and records for this station are not official NWS values.
T = Trace of Precipitation, MM = Missing Value Source: NWS Daily Summary

Daily Weather History Graph

Daily Weather History Graph

Search for Another Location

Airport:

Trip Planner

Search our weather history database for the weather conditions in past years. The results will help you decide how hot, cold, wet, or windy it might be!

Date:

Astronomy

May. 12, 2013 Rise Set
Actual Time 6:44 AM EDT 8:01 PM EDT
Civil Twilight 6:20 AM EDT 8:26 PM EDT
Nautical Twilight 5:50 AM EDT 8:55 PM EDT
Astronomical Twilight 5:20 AM EDT 9:25 PM EDT
Moon 8:42 AM EDT (5/12) 10:24 PM EDT (5/12)
Length of Visible Light 14h 06m
Length of Day
13h 17m
Waxing Crescent, 6% of the Moon is Illuminated
May 12
Waxing Crescent
May 18
First Quarter
May 25
Full
May 31
Last Quarter
Jun 8
New

Hourly Weather History & Observations

Time (EDT) Temp. Heat Index Dew Point Humidity Pressure Visibility Wind Dir Wind Speed Gust Speed Precip Events Conditions
12:53 AM 79.0 °F - 73.9 °F 84% 30.04 in 10.0 mi East 9.2 mph - N/A   Clear
1:53 AM 79.0 °F - 75.0 °F 88% 30.03 in 10.0 mi East 11.5 mph - N/A   Clear
2:53 AM 78.1 °F - 73.9 °F 87% 30.02 in 10.0 mi ESE 8.1 mph - N/A   Clear
3:53 AM 78.1 °F - 73.9 °F 87% 30.01 in 10.0 mi ESE 8.1 mph - N/A   Clear
4:53 AM 78.1 °F - 73.0 °F 84% 29.98 in 10.0 mi SE 11.5 mph - N/A   Partly Cloudy
5:54 AM 78.8 °F - 73.4 °F 83% 29.98 in 10.0 mi SE 13.8 mph - N/A   Clear
6:53 AM 79.0 °F - 72.0 °F 79% 29.99 in 10.0 mi SSE 12.7 mph - N/A   Partly Cloudy
7:53 AM 80.1 °F 84.2 °F 73.0 °F 79% 30.00 in 10.0 mi SSE 15.0 mph - N/A   Partly Cloudy
8:53 AM 81.0 °F 85.2 °F 72.0 °F 74% 30.01 in 10.0 mi SSE 16.1 mph - N/A   Clear
9:53 AM 82.9 °F 87.5 °F 71.1 °F 67% 30.03 in 10.0 mi SSE 11.5 mph - N/A   Partly Cloudy
10:53 AM 84.0 °F 89.0 °F 71.1 °F 65% 30.04 in 10.0 mi SSE 12.7 mph - N/A   Partly Cloudy
11:53 AM 84.9 °F 90.7 °F 72.0 °F 65% 30.04 in 10.0 mi SSE 9.2 mph - N/A   Partly Cloudy
12:53 PM 84.0 °F 89.6 °F 72.0 °F 67% 30.03 in 10.0 mi South 8.1 mph - N/A   Partly Cloudy
1:53 PM 84.0 °F 89.6 °F 72.0 °F 67% 30.03 in 10.0 mi Variable 4.6 mph - N/A   Partly Cloudy
2:53 PM 82.9 °F 88.0 °F 72.0 °F 69% 30.01 in 10.0 mi Variable 4.6 mph - N/A   Scattered Clouds
3:53 PM 84.0 °F 89.0 °F 71.1 °F 65% 30.00 in 10.0 mi Variable 5.8 mph - N/A   Scattered Clouds
4:53 PM 84.9 °F 89.4 °F 70.0 °F 61% 30.00 in 10.0 mi Variable 4.6 mph - N/A   Scattered Clouds
5:53 PM 82.9 °F 85.8 °F 68.0 °F 60% 30.00 in 10.0 mi SSE 4.6 mph - N/A   Scattered Clouds
6:53 PM 82.9 °F 86.5 °F 69.1 °F 63% 30.00 in 10.0 mi Calm Calm - N/A   Scattered Clouds
7:53 PM 81.0 °F 85.2 °F 72.0 °F 74% 30.02 in 10.0 mi NNW 6.9 mph - N/A   Scattered Clouds
8:53 PM 80.1 °F 83.8 °F 72.0 °F 76% 30.04 in 10.0 mi North 6.9 mph - N/A   Scattered Clouds
9:53 PM 80.1 °F 83.8 °F 72.0 °F 76% 30.05 in 10.0 mi North 5.8 mph - N/A   Scattered Clouds
10:53 PM 80.1 °F 84.2 °F 73.0 °F 79% 30.06 in 10.0 mi North 5.8 mph - N/A   Partly Cloudy
11:37 PM 80.6 °F 84.6 °F 71.6 °F 74% 30.07 in 10.0 mi NNE 5.8 mph - N/A   Mostly Cloudy
11:45 PM 80.6 °F 84.6 °F 71.6 °F 74% 30.07 in 10.0 mi NNE 5.8 mph - N/A   Scattered Clouds
11:53 PM 80.1 °F 83.8 °F 72.0 °F 76% 30.06 in 10.0 mi NNE 4.6 mph - N/A   Scattered Clouds